TimeAKDT,TemperatureF,Dew PointF,Humidity,Sea Level PressureIn,VisibilityMPH,Wind Direction,Wind SpeedMPH,Gust SpeedMPH,PrecipitationIn,Events,Conditions,WindDirDegrees,DateUTC
12:53 AM,33.1,23.0,66,29.91,10.0,SSW,3.5,-,0.00,,Mostly Cloudy,210,2013-09-24 08:53:00
1:53 AM,34.0,21.0,59,29.93,10.0,West,6.9,-,0.00,,Mostly Cloudy,280,2013-09-24 09:53:00
2:53 AM,33.1,23.0,66,29.95,10.0,Calm,Calm,-,0.00,,Mostly Cloudy,0,2013-09-24 10:53:00
3:53 AM,32.0,23.0,69,29.96,10.0,Calm,Calm,-,N/A,,Mostly Cloudy,0,2013-09-24 11:53:00
4:53 AM,32.0,24.1,73,29.98,10.0,Calm,Calm,-,N/A,,Mostly Cloudy,0,2013-09-24 12:53:00
5:53 AM,32.0,25.0,75,29.99,10.0,Calm,Calm,-,N/A,,Mostly Cloudy,0,2013-09-24 13:53:00
6:53 AM,28.9,24.1,82,30.01,10.0,Calm,Calm,-,N/A,,Mostly Cloudy,0,2013-09-24 14:53:00
7:53 AM,28.9,24.1,82,30.03,10.0,North,3.5,-,N/A,,Mostly Cloudy,10,2013-09-24 15:53:00
8:53 AM,28.0,24.1,85,30.04,10.0,Calm,Calm,-,N/A,,Mostly Cloudy,0,2013-09-24 16:53:00
9:53 AM,30.9,26.1,82,30.04,10.0,NE,4.6,-,N/A,,Mostly Cloudy,40,2013-09-24 17:53:00
10:53 AM,36.0,27.0,70,30.04,10.0,ESE,6.9,-,N/A,,Scattered Clouds,110,2013-09-24 18:53:00
11:53 AM,37.9,25.0,60,30.02,10.0,East,5.8,-,N/A,,Scattered Clouds,90,2013-09-24 19:53:00
12:53 PM,39.0,21.0,49,30.02,10.0,East,9.2,-,N/A,,Scattered Clouds,90,2013-09-24 20:53:00
1:53 PM,41.0,19.9,43,30.01,10.0,East,9.2,-,N/A,,Partly Cloudy,100,2013-09-24 21:53:00
2:53 PM,41.0,19.9,43,29.99,10.0,East,11.5,-,N/A,,Partly Cloudy,100,2013-09-24 22:53:00
3:53 PM,41.0,21.9,47,29.97,10.0,ESE,9.2,-,N/A,,Scattered Clouds,120,2013-09-24 23:53:00
4:53 PM,41.0,21.9,47,29.95,10.0,East,10.4,-,N/A,,Scattered Clouds,100,2013-09-25 00:53:00
5:53 PM,41.0,23.0,49,29.93,10.0,East,9.2,-,N/A,,Scattered Clouds,90,2013-09-25 01:53:00
6:53 PM,37.9,24.1,57,29.90,10.0,NE,6.9,-,N/A,,Mostly Cloudy,50,2013-09-25 02:53:00
7:53 PM,34.0,23.0,64,29.88,10.0,NE,9.2,-,N/A,,Mostly Cloudy,50,2013-09-25 03:53:00
8:53 PM,35.1,24.1,64,29.86,10.0,ENE,6.9,-,N/A,,Mostly Cloudy,60,2013-09-25 04:53:00
9:53 PM,37.0,23.0,57,29.83,10.0,NE,8.1,-,N/A,,Overcast,50,2013-09-25 05:53:00
10:53 PM,37.0,23.0,57,29.78,10.0,NE,10.4,-,N/A,,Overcast,50,2013-09-25 06:53:00
11:53 PM,37.0,23.0,57,29.76,10.0,NE,6.9,-,N/A,,Overcast,50,2013-09-25 07:53:00